Location: Blue Mountain Church
(34.6584°N, 89.0251°W)
Time: 02:45:48
(UTC+00:00)

Daily predictions for brighter satellites

Satellite Brightness Start Highest point End
(mag) Time Altitude Azimuth Time Altitude Azimuth Time Altitude Azimuth
Cosmos 807 4.4 00:18:10 10° S 00:21:04 49° E 00:24:25 10° NNE
Cosmos 1937 Rocket 3.7 00:16:33 10° SSW 00:21:49 83° WNW 00:27:04 10° NNE
Cosmos 2084 Rocket 4.0 00:17:46 10° NNW 00:22:03 43° NE 00:26:23 10° SE
Cosmos 1544 4.3 00:19:39 10° SSW 00:23:12 48° W 00:26:45 10° N
CZ-4 R/B 4.4 00:19:13 10° SSE 00:23:19 80° ENE 00:27:27 10° N
USA 234 4.3 00:22:06 10° ENE 00:27:12 24° ESE 00:32:16 10° S
Cosmos 1939 Rocket 3.3 00:24:58 10° S 00:29:02 72° W 00:33:11 10° NNW
CZ-2C R/B 0.9 00:25:42 10° W 00:29:26 84° N 00:32:43 11° E
Cosmos 2112 Rocket 4.0 00:24:29 10° NNW 00:29:44 84° ENE 00:34:58 10° SSE
Cosmos 1943 3.3 00:25:23 10° NNW 00:30:57 56° ENE 00:36:29 10° SE
Cosmos 1680 Rocket 3.7 00:27:35 10° NNW 00:32:49 77° WSW 00:38:03 10° S
CSL-04 Debris 4.4 00:30:33 10° SE 00:35:40 47° ENE 00:40:49 10° N
Iridium 4 Rocket 3.7 00:32:00 10° S 00:36:49 78° W 00:42:07 10° N
Helios 1A Rocket 3.9 00:36:13 10° S 00:40:12 51° W 00:44:13 10° NNW
Cosmos 1975 Rocket 3.1 00:36:33 10° N 00:40:48 57° E 00:45:01 10° SSE
CSL-04 Rocket 3.8 00:37:14 10° SSE 00:42:27 52° ENE 00:47:45 10° N
Cosmos 1174 4.3 00:41:43 10° SSW 00:46:08 66° ESE 00:51:48 10° NNE
Shenzhou-11 Module 3.5 00:46:15 10° S 00:46:55 12° SSE 00:46:55 12° SSE
Cosmos 1603 3.8 00:47:12 10° NNW 00:52:51 79° WSW 00:58:26 10° SSE
HJ-1C 3.3 00:53:26 10° SSE 00:56:39 57° ENE 00:59:53 10° N
H-2A R/B 2.0 00:52:31 10° SSE 00:57:20 59° ENE 01:02:17 10° N
Cosmos 1072 Rocket 4.4 00:52:44 10° S 00:58:55 74° E 01:05:13 10° N
Meteor 1-21 4.3 00:53:45 10° N 00:59:21 82° W 01:04:56 10° S
Sich 1 Rocket 3.8 00:55:20 10° S 00:59:47 76° W 01:04:19 10° N
ATLAS 2AS CENTAUR R/B 3.7 00:53:19 10° SSE 00:59:47 29° ESE 01:06:21 10° NE
BREEZE-M TANK 4.4 00:44:53 10° WSW 01:01:01 59° NNW 01:05:14 10° NE
Meteor 1-12 Rocket 4.2 00:56:43 10° S 01:02:38 75° E 01:08:28 10° NNE
Cosmos 2034 Rocket 4.1 00:59:31 10° SSE 01:05:39 53° E 01:11:47 10° NNE
CENTAUR R/B 4.2 01:03:47 10° N 01:10:29 27° NE 01:14:15 20° E
GOES 2 Rocket 3.9 01:07:22 10° SW 01:11:05 31° S 01:12:20 26° SE
CZ-4 R/B 3.2 01:07:57 10° SSW 01:11:49 35° W 01:15:42 10° NNW
Okean 1 Rocket 4.4 01:16:18 22° ENE 01:16:18 22° ENE 01:18:35 10° NNE
Okean 2 Rocket 3.2 01:11:42 10° S 01:16:11 80° W 01:20:42 10° N
Ariane Rocket 3.4 01:16:43 30° ESE 01:18:24 40° ENE 01:23:07 10° N
Cosmos 1300 Rocket 3.7 01:14:30 10° S 01:18:52 76° W 01:23:18 10° N
Cosmos 1707 2.6 01:16:13 10° N 01:20:04 89° W 01:23:09 15° S
ARGOS 3.0 01:21:17 10° SSE 01:26:38 85° ENE 01:32:01 10° NNW
USA 238 DEB 4.4 01:19:52 10° NNW 01:26:40 40° NE 01:29:18 31° E
USA 238 4.4 01:19:58 10° NNW 01:26:45 40° NE 01:29:22 31° E
DELTA 2 R/B (1) 3.7 01:21:18 10° WNW 01:26:48 67° SSW 01:29:07 35° SE
In-Cosmos 22 3.9 01:25:01 10° N 01:30:21 78° E 01:34:17 19° SSE
SJ-6B 3.9 01:33:14 29° NNE 01:33:14 29° NNE 01:35:27 10° N
SL-08 RB Rocket 3.6 01:30:56 37° SSE 01:32:41 71° ENE 01:37:14 10° N
CZ-2C R/B 4.3 01:29:49 10° S 01:34:41 43° W 01:39:51 10° NNW
CZ-2C R/B 2.6 01:30:59 10° NNE 01:36:35 79° ESE 01:42:11 10° S
Cosmos 1634 Rocket 4.3 01:37:17 39° E 01:37:17 39° E 01:42:48 10° NNE
USA 186 3.3 01:43:19 29° NNW 01:43:19 29° NNW 01:45:04 10° NNW
Cosmos 1536 Rocket 3.4 01:40:31 10° N 01:45:00 86° E 01:45:33 68° SSE
Cosmos 2285 Rocket 3.9 01:40:51 10° SSW 01:47:08 86° ESE 01:53:29 10° NNE
Cosmos 1025 Rocket 3.5 01:45:32 10° NNW 01:49:51 58° W 01:51:50 30° SSW
Cosmos 1844 4.0 01:45:17 10° SSW 01:50:57 67° WNW 01:56:36 10° NNE
NOSS 3-2 (A) 4.1 01:46:03 10° NNW 01:53:50 66° ENE 01:56:30 46° ESE
Meteor 2-13 Rocket 4.4 01:49:04 10° N 01:55:09 60° E 01:55:29 59° E
Cosmos 1844 Rocket 3.6 01:50:17 10° SW 01:55:36 47° WNW 02:00:59 10° N
Cosmos 1867 4.2 01:54:35 10° NW 01:59:51 51° WSW 02:01:45 35° SSW
Cosmos 1092 Rocket 3.8 01:58:48 10° N 02:04:57 70° E 02:05:05 70° E
Cosmos 2195 Rocket 4.5 01:59:42 10° N 02:05:23 60° ENE 02:05:23 60° ENE
MetOp-A 4.0 02:07:39 81° SSW 02:07:54 85° WSW 02:13:18 10° NNW
CZ-2C R/B 3.2 02:05:32 10° W 02:07:04 23° W 02:07:04 23° W
Cosmos 2026 Rocket 4.3 02:03:21 10° N 02:08:36 51° NE 02:08:36 51° NE
USA 234 3.3 02:04:41 14° NE 02:10:30 76° NW 02:17:02 10° SW
MOS 1 4.4 02:10:42 57° SSW 02:11:48 74° WSW 02:17:30 10° NNW
Milstar 3 Cent rocket 3.2 02:09:46 10° WSW 02:14:14 34° SSW 02:14:14 34° SSW
Longmarch 3A Rocket 4.4 02:12:46 10° WSW 02:12:55 12° WSW 02:12:55 12° WSW
BREEZE-M DEB (TANK) 4.2 02:04:35 10° WNW 02:21:59 88° NNE 02:22:38 75° ESE
NOSS 3-4 (A) 3.7 02:21:58 10° SW 02:27:45 63° WNW 02:30:10 36° N
NOSS 3-4 (C) 3.6 02:22:05 10° SW 02:27:52 64° WNW 02:29:46 42° N
NOSS 3-2 (C) 4.0 02:21:43 10° NNW 02:29:34 71° ENE 02:29:49 70° ENE
Resurs 01 Rocket 4.1 02:36:49 15° N 02:36:49 15° N 02:37:36 10° N
ATLAS 2AS CENTAUR R/B 3.5 02:42:36 10° SW 02:50:20 58° NW 02:58:10 10° NNE
BREEZE-M DEB (TANK) 4.2 02:49:30 10° NW 02:54:11 76° SW 02:54:11 76° SW
CENTAUR R/B 3.2 02:53:38 10° NNW 03:01:27 77° WNW 03:01:27 77° WNW
ATLAS 3B R/B 4.1 03:03:44 10° NNW 03:07:18 28° N 03:07:18 28° N
USA 267 4.3 08:18:31 10° NE 08:22:28 39° NNE 08:22:28 39° NNE
Cosmos 1980 Rocket 3.6 08:52:46 31° NNE 08:52:46 31° NNE 08:55:41 10° NNE
BREEZE-M DEB (TANK) 4.1 08:55:56 77° S 08:56:18 79° SSE 09:01:03 10° ENE
Cosmos 2322 Rocket 4.0 08:55:33 21° SE 08:57:13 25° ESE 09:01:44 10° NE
Cosmos 2263 Rocket 4.2 08:57:33 10° N 09:02:10 25° ENE 09:06:48 10° ESE
SL-16 R/B 3.3 09:05:31 36° SE 09:06:22 38° ESE 09:11:33 10° NE
SL-4 R/B 4.0 09:08:18 31° ENE 09:08:18 31° ENE 09:11:00 10° ENE
ADEOS II 4.4 09:08:35 10° NNW 09:09:07 12° NNW 09:09:07 12° NNW
Cosmos 1934 Rocket 3.9 09:06:54 10° N 09:12:49 78° ENE 09:12:49 78° ENE
ARIANE 5 R/B 4.2 09:10:42 10° N 09:12:41 23° N 09:12:41 23° N
CZ-2C R/B 3.8 09:17:06 10° NNE 09:21:52 37° E 09:24:58 19° SSE
IDEFIX/ARIANE 42P 3.6 09:16:48 10° N 09:20:03 37° N 09:20:03 37° N
Cosmos 1763 Rocket 4.3 09:21:34 41° SE 09:22:42 47° ESE 09:27:47 10° NNE
SJ 16-02 2.8 09:26:29 10° N 09:30:32 36° ENE 09:34:36 10° SE
Meteor 2-6 Rocket 4.1 09:32:37 75° SSW 09:33:08 89° W 09:38:56 10° N
Meteor 1-14 Rocket 4.3 09:27:41 10° NNW 09:32:16 60° NNW 09:32:16 60° NNW
H-2A R/B 3.0 09:30:05 10° SSE 09:34:14 48° ENE 09:38:31 10° N
PSLV R/B 4.3 09:30:13 10° NNE 09:34:16 46° E 09:34:43 44° ESE
Cosmos 1238 Rocket 3.7 09:31:57 10° N 09:38:23 70° W 09:39:04 64° SW
Cosmos 1605 Rocket 4.0 09:33:52 10° N 09:40:19 83° E 09:46:42 10° S
Cosmos 1535 Rocket 4.4 09:35:24 10° NNW 09:41:43 64° W 09:43:11 50° SW
Skynet4D Del rocket 4.3 09:42:00 37° S 09:42:00 37° S 09:47:08 10° ESE
BREEZE-M DEB (TANK) 4.4 09:39:27 43° WNW 09:41:59 63° NNW 10:06:36 10° ENE
Landsat 5 3.9 09:40:16 10° SSE 09:44:45 69° ENE 09:49:14 10° N
Lacrosse 5 4.2 09:45:25 11° NNW 09:45:25 11° NNW 09:47:01 10° N
ERS-2 3.9 09:44:03 10° SE 09:47:19 32° ENE 09:50:38 10° N
PAYLOAD A 3.8 09:44:23 10° NNE 09:49:05 81° ESE 09:50:29 46° S
Cosmos 468 Rocket 3.9 09:50:04 58° SW 09:51:04 78° WNW 09:56:23 10° NNE
X-37B 3.2 09:51:10 15° N 09:51:20 15° N 09:53:17 10° NE
ALOS 4.0 09:57:27 10° NNE 10:01:38 32° E 10:05:47 10° SSE
CSL-04 DEB 4.4 09:59:00 10° S 10:03:15 76° WSW 10:07:36 10° NNW
Cosmos 1536 4.0 10:04:29 10° N 10:08:23 44° E 10:12:16 10° SSE
Cosmos 1727 Rocket 3.9 10:03:35 12° SSW 10:09:31 70° W 10:15:51 10° N
DASH 4.2 10:14:07 26° SW 10:14:10 26° SW 10:17:11 10° SSE
Meteor 1-11 Rocket 3.7 10:10:10 10° N 10:15:56 85° E 10:21:32 10° S
Meteor 1-27 Rocket 3.8 10:15:21 10° SSW 10:21:15 70° W 10:27:10 10° N
SL-8 R/B 4.3 10:17:55 14° NW 10:21:55 55° NNE 10:26:35 10° ESE
deb Chang Zheng 4 3.6 10:17:54 10° NNE 10:22:11 77° ESE 10:26:26 10° S
Cosmos 2360 Rocket 2.3 10:18:14 10° SSW 10:23:52 78° ESE 10:29:32 10° NNE
ADEOS Rocket 3.2 10:19:33 10° SSE 10:26:36 89° E 10:32:57 10° NNW
Cosmos 1898 Rocket 3.5 10:21:59 10° NNW 10:27:16 88° WSW 10:32:34 10° SSE
ATLAS 2AS CENTAUR R/B 4.3 10:20:49 10° NNW 10:27:31 36° NE 10:33:41 10° ESE
Cosmos 1707 Rocket 3.8 10:26:34 24° SW 10:28:46 44° W 10:32:56 10° N
Cosmos 1666 2.6 10:26:58 10° NNW 10:30:43 58° W 10:34:24 10° S
Cosmos 1459 Rocket 4.1 10:25:56 10° N 10:32:02 76° E 10:38:03 10° S
SAR-Lupe-4 4.2 10:31:38 10° SSE 10:35:09 57° ENE 10:38:41 10° N
Cosmos 2208 Rocket 3.9 10:31:57 10° SSW 10:37:13 84° WNW 10:42:27 10° NNE
FENGYUN 3A 3.7 10:33:11 10° NNE 10:38:37 85° ESE 10:44:01 10° SSW
USA 234 3.2 10:32:26 10° SE 10:38:57 78° SW 10:45:30 10° NW
Cosmos 2322 Rocket 2.7 10:37:25 19° WSW 10:40:59 38° WNW 10:46:16 10° N
USA 32 4.2 10:40:45 10° NNW 10:45:46 47° W 10:50:46 10° SSW
Cosmos 2263 Rocket 2.6 10:40:57 10° NW 10:46:09 39° WSW 10:51:22 10° S
SL-4 R/B 3.6 10:43:55 17° WNW 10:46:24 27° NNW 10:50:29 10° NNE
SAR-Lupe-1 4.1 10:43:44 10° SSE 10:47:16 82° E 10:50:51 10° N
SL-16 R/B 3.3 10:47:26 17° WSW 10:50:30 26° WNW 10:55:11 10° N
Cosmos 1733 Rocket 2.9 10:47:27 10° NNW 10:51:47 71° W 10:56:03 10° S
Cosmos 2237 4.4 10:46:31 10° SW 10:52:05 54° WNW 10:57:41 10° NNE
Cosmos 1844 Rocket 4.1 10:46:50 10° N 10:52:11 42° ENE 10:57:32 10° SE
Cosmos 1937 Rocket 3.4 10:47:32 10° NNW 10:52:40 72° WSW 10:57:45 10° S
Cosmos 1814 Rocket 4.1 10:49:39 10° SSW 10:54:44 57° WNW 10:59:54 10° N
Cosmos 44 Rocket 3.7 10:51:43 13° SW 10:55:38 41° WNW 11:00:11 10° NNE
Cosmos 841 Rocket 3.9 10:51:02 10° SW 10:55:57 43° WNW 11:00:57 10° N
ADEOS 3.8 10:51:55 10° N 10:56:54 47° WNW 11:01:51 10° SW
CZ-2C R/B 3.7 10:55:49 10° NNW 10:59:47 23° WNW 11:03:48 10° WSW
Cosmos 1862 Rocket 4.0 10:58:53 10° SSW 11:02:59 39° W 11:07:06 10° N
Gbstr 26 Del rocket 4.4 10:56:10 10° NW 11:04:05 87° NE 11:10:47 10° SE
Cosmos 2173 Rocket 4.1 10:58:54 10° NNW 11:05:05 56° W 11:11:16 10° SSW
SJ-12 3.9 11:01:28 10° N 11:05:37 86° W 11:09:44 10° SSW
CZ-4B R/B 1.9 11:03:06 10° SSW 11:05:55 31° W 11:08:48 10° NNW
SJ 16-02 2.9 11:06:12 10° WNW 11:08:44 15° W 11:11:17 10° SW
Cosmos 1743 2.6 11:06:23 10° N 11:10:12 78° W 11:13:59 10° S
H-2A R/B 3.8 11:08:47 10° WSW 11:10:27 12° W 11:12:09 10° WNW
Cosmos 2219 Rocket 2.6 11:08:36 10° SSW 11:14:13 72° ESE 11:19:53 10° NNE
Cosmos 1689 Rocket 1.9 11:11:27 10° S 11:14:24 73° W 11:17:21 10° NNW
COSMOS 2428 3.1 11:15:17 10° SSW 11:20:56 71° ESE 11:26:38 10° NNE
